Flag for Germany Weather past 2 weeks in Bayreuth, Bavaria, Germany

Now
46 °F

Sunny.


Feels Like: 44 °F
Forecast: 28 / 39 °F
Wind: 6 mph from West

Location: Grafenwoehr

Current Time: Feb 27, 2015 at 3:15:15 PM

Latest Report: Feb 27, 2015 at 2:58 PM


Visibility: N/A

Pressure: 29.90 "Hg

Humidity: 40%

Dew point: 23 °F

Location of BayreuthLocation

Historic Weather in Bayreuth — Graph

°F

Bayreuth temperature yesterday

Maximum temperature yesterday: 45 °F (at 1:58 PM)
Minimum temperature yesterday: 19 °F (at 7:04 AM)
Average temperature yesterday: 29 °F

Past Weeks' High & Low Weather Summary

 TemperatureHumidityPressure
High48 °F (Feb 21, 2:58 PM)100% (Feb 12, 6:58 PM)30.78 "Hg (Feb 12, 6:58 PM)
Low18 °F (Feb 27, 4:58 AM)46% (Feb 26, 3:58 PM)29.52 "Hg (Feb 23, 5:59 PM)
Average31 °F87%30.10 "Hg
* Reported Feb 12 1:58 PM — Feb 27 1:58 PM, Bayreuth, Weather by CustomWeather, © 2015

Note: Actual official high and low records may vary slightly from our data, if they occured in-between our weather recording intervals... More about our weather records

Advertising

Bayreuth weather history for previous 24 hours

 ConditionsComfort  
Time TempWeatherWind HumidityBarometerVisibility
1:58 PM
Fri, Feb 27
46 °FSunny.6 mph46%29.90 "HgN/A
12:58 PM45 °FSunny.5 mph53%29.90 "HgN/A
11:58 AM43 °FSunny.3 mph61%29.90 "HgN/A
10:58 AM39 °FSunny.3 mph70%29.91 "HgN/A
9:58 AM34 °FSunny.1 mph81%29.92 "HgN/A
8:58 AM27 °FSunny.No wind93%29.93 "HgN/A
7:58 AM19 °FSunny.1 mph93%29.93 "HgN/A
6:58 AM19 °FClear.No wind93%29.93 "HgN/A
5:58 AM18 °FClear.1 mph93%29.92 "HgN/A
4:58 AM18 °FClear.No wind93%29.94 "HgN/A
3:58 AM19 °FClear.No wind93%29.94 "HgN/A
1:58 AM21 °FClear.No wind93%29.98 "HgN/A
12:58 AM23 °FClear.No wind93%30.00 "HgN/A
11:58 PM
Thu, Feb 26
23 °FClear.No wind93%30.02 "HgN/A
10:58 PM25 °FClear.No wind86%30.05 "HgN/A
9:58 PM27 °FClear.No wind86%30.07 "HgN/A
8:58 PM27 °FClear.No wind80%30.10 "HgN/A
7:58 PM28 °FClear.1 mph74%30.12 "HgN/A
6:58 PM32 °FClear.No wind69%30.12 "HgN/A
5:58 PM39 °FClear.2 mph52%30.12 "HgN/A
4:58 PM43 °FSunny.5 mph49%30.12 "HgN/A
3:58 PM45 °FSunny.5 mph46%30.13 "HgN/A
Weather by CustomWeather, © 2015

See weather overviewHow to use our weather pages